Home > Weather > Straubing > Past weeks

Flag for Germany Past Weather in Straubing, Bavaria, Germany — Yesterday and Last 2 Weeks

Now
66 °F

Fog.


Feels Like: 66 °F
Forecast: 62 / 80 °F
Wind: 2 mph from West

Location: Straubing

Current Time: Jul 24, 2016 at 7:07:56 AM

Latest Report: Jul 24, 2016 at 6:00 AM


Visibility: 3 mi

Pressure: 30.06 "Hg

Humidity: 96%

Dew Point: 65 °F

Location of StraubingLocation

Past Weather in Straubing — Graph

°F

Straubing Temperature Yesterday

Maximum temperature yesterday: 82 °F (at 4:00 PM)
Minimum temperature yesterday: 65 °F (at 6:00 AM)
Average temperature yesterday: 73 °F

High & Low Weather Summary for the Past Weeks

 TemperatureHumidityPressure
High85 °F (Jul 11, 1:00 PM)100% (Jul 12, 4:00 AM)30.33 "Hg (Jul 12, 4:00 AM)
Low49 °F (Jul 15, 12:00 AM)35% (Jul 20, 6:00 PM)29.79 "Hg (Jul 11, 7:00 PM)
Average67 °F77%30.04 "Hg
* Reported Jul 9 6:00 AM — Jul 24 6:00 AM, Straubing, Weather by CustomWeather, © 2016

Note: Actual official high and low records may vary slightly from our data, if they occured in-between our weather recording intervals... More about our weather records

Advertising

Straubing Weather History for the Previous 24 Hours

Scroll right to see more
 ConditionsComfort  
Time TempWeatherWind HumidityBarometerVisibility
6:00 AM
Sun, Jul 24
66 °FFog.2 mph96%30.06 "Hg3 mi
4:00 AM67 °FFog.2 mph95%30.06 "Hg3 mi
3:00 AM67 °FFog.2 mph93%30.06 "Hg4 mi
1:00 AM68 °FFog.2 mph98%30.05 "Hg2 mi
12:00 AM69 °FOvercast.1 mph96%30.03 "Hg4 mi
10:00 PM
Sat, Jul 23
70 °FRain. Passing clouds.3 mph93%30.01 "Hg2 mi
9:00 PM73 °FPassing clouds.2 mph82%29.99 "Hg8 mi
7:00 PM77 °FPassing clouds.3 mph70%29.96 "Hg11 mi
6:00 PM80 °FSunny.2 mph57%29.96 "Hg17 mi
5:00 PMN/APassing clouds.9 mphN/AN/A1 mi
4:00 PM82 °FSunny.2 mph54%29.96 "Hg28 mi
3:00 PM81 °FPassing clouds.2 mph54%29.97 "Hg31 mi
1:00 PM79 °FSunny.2 mph56%29.98 "Hg22 mi
12:00 PM76 °FSunny.2 mph68%30.00 "Hg15 mi
10:00 AM72 °FPassing clouds.1 mph79%30.01 "Hg19 mi
9:00 AM68 °FPartly sunny.2 mph85%30.02 "Hg19 mi
7:00 AM65 °FOvercast.1 mph93%29.99 "Hg14 mi
Weather by CustomWeather, © 2016

See weather overviewHow to use our weather pages